Weather in Buribay

Russia / Republic of Bashkortostan     51°57′40″N   58°09′49″E
temp.,
°C
wind,
m/s
gust,
m/s
humid.,
%
clouds,
%
prec.,
mm/h
press.,
hPa
HPBL,
m
26 february, fri
fri2623:00−26w23830 0.0 103320
02:00−27wsw228355 0.0 103219
05:00−25wsw228871 0.0 103123
08:00−24s2390100 0.0 103041
11:00−22sse349899 0.1 1029219
14:00−20sse359699 0.1 1028295
17:00−20ese359899 0.1 1027170
20:00−23se34100100 0.1 102756
27 february, sat
sat2723:00−23ese35100100 0.1 102580
02:00−23ese3799100 0.1 1023187
05:00−21se4999100 0.3 1020272
08:00−18se61097100 0.3 1015378
11:00−13sse61195100 3.0 1012486
14:00−7s71194100 1.5 1008700
17:00−6s5995100 2.1 1006503
20:00−4sse589799 0.9 1004259
28 february, sun
sun2823:00−1wsw51092100 1.3 1004584
02:00−2ssw3797100 0.4 1002334
05:00−3ssw369799 0.6 1002124
08:00−5sw3597100 0.1 100293
11:00−3sw379499 0.1 1002380
14:00−1sw4794100 0.4 1002572
17:00−2sw4893100 0.8 1003465
20:00−8w71290100 0.1 1006318
1 march, mon
mon123:00−13wnw5119169 0.1 1009228
02:00−14wnw349467 0.0 101156
05:00−15w339481 0.0 101328
08:00−14w239591 0.1 101448
11:00−11w239495 0.3 1015185
14:00−8wsw239090 0.1 1016322
17:00−8wsw469291 0.2 1017344
20:00−11w499294 0.1 1018241
2 march, tue
tue223:00−13w479497 0.1 1019176
02:00−15w479397 0.0 1019138
05:00−19w479579 0.0 101995
08:00−21w47950 0.0 1019119
11:00−17w58900 0.0 1018262
14:00−13w69880 0.0 1017391
17:00−15wsw510890 0.0 1016343
20:00−19wsw4109386 0.0 1015256